Погода в Полоном

Россия / Псковская область     57°46′52″N   29°38′11″E
темп.,
°C
ветер,
м/с
пор.,
м/с
влажн.,
%
обл.,
%
осадки,
мм/ч
давл.,
гПа
погр.,
м
10 апреля, сб
сб1000:00+5ююз61564100 0.0 10131381
03:00+5ююз61465100 0.0 10121005
06:00+4ююз6146995 0.0 1012754
09:00+6ююз61366100 0.0 1013885
12:00+10ююз6135699 0.0 10121557
15:00+9юз61369100 0.4 10121601
18:00+3зюз31094100 3.9 1015602
21:00+4зюз398821 4.1 1018554
11 апреля, вс
вс1100:00+1юз249313 0.0 102086
03:000юз22880 0.0 102315
06:000ююз11804 0.0 102410
09:00+5ююв126321 0.0 1026263
12:00+8ююв235794 0.0 10261347
15:00+10ююв3457100 0.0 10271517
18:00+9юв357184 0.0 1027867
21:00+7юв398867 0.0 1027342
12 апреля, пн
пн1200:00+5юв3109496 0.0 1027226
03:00+6ююв3119191 0.0 1026223
06:00+5ююв3119056 0.0 1026215
09:00+9ююв41370100 0.0 1026420
12:00+14ю595012 0.0 1025996
15:00+16ююв584321 0.0 10231498
18:00+15ююв48500 0.0 10221142
21:00+9ююв28720 0.0 1021139
13 апреля, вт
вт1300:00+7ююв38780 0.0 1020148
03:00+6ююв398120 0.0 1019153
06:00+5ю24843 0.0 101973
09:00+9ю356610 0.0 1019294
12:00+11ююз2663100 0.0 1018463
15:00+13зюз355489 0.0 1018797
18:00+11зсз347093 0.0 1018562
21:00+6сз478792 0.0 1020392
14 апреля, ср
ср1400:00+5ссз3787100 0.0 1020449
03:00+4ссз3692100 0.5 1021655
06:00+3с3792100 0.6 1022494
09:00+3с3676100 0.6 1023532
12:00+5с3561100 0.0 1024775
15:00+7с4548100 0.0 10241130
18:00+7ссв3550100 0.0 10241174
21:00+4ссв286591 0.0 1025259